Powrót do katalogu

CZ-6A DEB

AktywnyPO
NORAD 63394·DEBRIS·🇨🇳 China

Wystrzelony Aug 6, 2024 z Taiyuan Satellite Launch Center

Loading…

Następne Przeloty (najbliższe 24 godziny)

TLE

ŚwieżeSource: Space-Track

Epoka: Sep 14, 2026, 10:49 UTC

1 63394U 24140ADR 26257.45075697  .00001057  00000-0  52005-3 0  9999
2 63394  88.9412 260.5165 0071181 282.5631  76.7601 14.15649494103300

Śledź CZ-6A DEB w czasie rzeczywistym z AllMySat

Download on the App Store